CAPE
884 1193 1198 1115 916 735 1058 868 852 708 366 219 157 197 277 78 124 152 21 0 17 36 25 40 22 18 11 11 4 0 0 0 0 0 0 0 0 0 0 0 0 0 0
464 607 914 555 525 728 658 857 762 511 511 383 359 353 379 175 181 198 124 33 13 67 35 41 53 44 9 20 20 12 4 4 1 0 0 0 0 0 0 0 0 0 0
327 539 519 329 453 467 490 752 648 520 519 463 363 369 687 289 262 275 214 103 95 90 62 45 51 49 27 14 14 11 3 4 12 8 0 0 0 0 0 0 0 0 2
153 216 311 178 334 417 381 532 522 537 531 458 346 297 226 287 332 291 290 245 224 157 116 144 43 70 34 21 54 38 11 4 15 1 8 0 0 0 0 0 0 0 1
76 120 237 250 382 325 391 379 408 460 667 603 376 217 187 158 76 290 126 206 189 209 138 104 182 87 51 42 41 48 39 6 19 16 0 0 9 2 4 1 0 2 0
35 24 162 204 122 223 404 448 274 172 124 62 137 182 54 12 3 18 32 61 140 204 150 149 94 102 75 65 58 80 56 29 9 6 18 15 15 10 3 1 7 2 2
50 63 103 62 208 202 176 184 18 17 141 187 102 151 15 50 35 8 20 66 140 228 187 37 27 79 190 83 73 74 57 49 32 32 26 13 26 26 29 24 23 7 8
72 142 125 99 149 137 106 128 246 125 84 7 5 52 0 0 1 2 2 0 0 0 56 215 113 76 98 181 101 55 35 46 18 39 38 48 36 35 34 44 36 19 3
66 173 137 121 168 147 165 46 114 149 112 101 9 0 0 0 0 0 0 0 0 0 0 0 0 26 41 56 69 62 38 45 42 42 45 50 55 42 46 44 44 39 33
2 17 129 170 111 128 72 41 62 68 19 0 0 0 0 0 0 0 0 0 0 0 0 0 0 0 0 0 1 8 15 32 35 59 58 63 53 36 47 47 39 30 23
0 9 17 74 84 128 32 32 7 10 2 0 0 0 0 0 0 0 1 3 2 1 0 0 0 0 0 0 0 0 2 21 36 25 37 57 27 41 44 42 28 20 31
0 0 8 29 40 66 92 23 15 10 3 0 0 0 0 0 0 0 0 0 1 0 0 0 0 0 0 1 2 0 1 5 12 18 27 27 24 40 31 33 6 0 9
0 0 0 7 21 22 52 37 16 11 0 0 0 0 0 0 0 0 0 0 0 0 0 0 0 0 0 0 0 1 2 0 0 0 5 15 35 0 28 27 24 0 3
0 0 0 0 4 2 8 8 6 0 0 0 0 0 0 0 0 0 0 0 0 0 0 0 0 6 9 2 6 9 8 4 3 3 2 9 43 8 7 25 6 24 4
0 0 0 0 0 0 0 0 0 0 0 0 0 0 0 0 0 0 0 0 0 0 0 0 4 15 17 30 25 29 23 30 30 32 27 29 23 19 8 11 10 8 8
0 0 0 0 0 0 0 0 0 0 0 0 0 0 0 0 0 0 0 0 0 0 0 0 0 13 23 32 28 41 43 36 28 25 29 26 20 18 17 18 18 16 17
0 0 0 0 0 0 0 0 0 0 0 0 0 0 0 0 0 0 0 0 0 0 0 1 9 4 25 28 44 73 65 54 32 25 11 5 10 8 8 16 25 33 34
0 0 0 0 0 0 0 0 0 0 0 0 0 0 0 0 0 0 0 0 0 0 0 3 5 7 39 36 39 46 50 43 25 23 22 13 4 6 15 24 16 29 30
0 0 0 0 0 0 0 0 0 0 0 0 0 0 0 0 0 0 0 0 0 0 0 3 0 5 2 40 41 37 44 41 21 23 27 21 2 0 6 7 2 15 16
0 0 0 0 0 0 0 0 0 0 0 0 0 0 0 0 0 0 0 0 0 0 0 0 6 6 0 3 7 39 47 57 50 44 43 3 0 0 3 6 1 0 0
0 0 0 0 0 0 0 0 0 0 0 0 0 0 0 0 0 0 0 0 0 0 0 0 0 3 5 4 1 18 46 46 34 27 44 29 21 5 0 0 0 12 0
0 0 0 0 0 0 0 0 0 0 0 0 0 0 0 0 0 0 0 0 0 0 0 0 1 1 3 0 5 5 13 18 41 27 2 10 9 3 2 0 0 0 0
0 0 0 0 0 0 0 0 0 0 0 0 0 0 0 0 0 0 0 0 0 0 0 0 0 0 0 0 0 0 0 3 1 7 1 5 30 10 7 2 0 0 17
0 0 0 0 0 0 0 0 0 0 0 0 0 0 0 0 0 0 0 0 0 0 0 0 0 0 0 0 0 0 0 0 0 11 6 1 2 11 3 4 0 0 4
0 0 0 0 0 0 0 0 0 0 0 0 0 0 0 0 0 0 0 0 0 0 0 0 0 0 0 0 0 0 0 0 8 8 6 0 4 15 11 10 4 19 36
0 0 0 0 0 0 0 0 0 0 0 0 0 0 0 0 0 0 0 0 0 0 0 0 0 0 0 0 0 0 8 2 9 12 10 4 6 15 7 1 0 26 21
CIN
-8 0 0 0 -9 -17 -10 -11 -11 -24 -24 -41 -38 -9 -7 -29 -12 -2 -7 0 -2 -4 0 0 -1 0 -1 0 -2 0 0 0 0 0 0 0 0 0 0 0 0 0 0
-27 -20 -1 -15 -13 -12 -13 -6 -15 -31 -24 -9 -8 -7 -8 -9 -22 -13 -11 -11 -7 -18 -60 0 0 -3 0 -3 0 0 0 0 0 0 0 0 0 0 0 0 0 0 0
-31 -14 -13 -22 -13 -13 -9 0 -6 -13 -13 -24 -27 -9 -2 -14 -13 -3 -10 -16 -22 -34 -41 -4 -2 -3 -10 0 -3 0 0 0 0 0 0 0 0 0 0 0 0 0 0
-27 -29 -19 -32 -11 -7 -6 0 -3 -4 -7 -10 -17 -18 -29 -9 -7 -13 -23 -12 -6 -22 -35 -30 -17 -66 -10 -1 -4 -2 -1 -3 -11 0 -13 0 0 0 0 0 0 0 0
-14 -17 -6 -8 0 -6 -2 0 -1 -3 -1 -2 -8 -5 0 -7 -29 -18 -29 -18 -21 -14 -28 -30 -11 -65 -5 -9 -7 -1 -4 0 -15 -13 0 0 -5 -1 -4 -2 0 -2 -2
-11 -14 -3 -2 -7 -2 0 0 0 -4 -16 -21 -8 -5 -6 -13 -21 -44 -55 -44 -23 -11 -17 -25 -41 -42 -64 -45 -3 -2 0 -6 -1 0 -15 -8 -5 -6 -10 0 -4 0 -7
-4 -2 -1 -2 0 0 -1 0 -2 0 -3 -2 -8 -5 -9 -15 -11 -10 -9 -27 -18 -15 -21 -21 -17 -17 -13 -42 -1 0 -1 -1 -5 -7 -10 -2 -10 -9 -4 -3 -8 -4 -15
-1 0 0 0 0 0 0 0 0 0 0 0 -1 -4 0 0 0 -1 -1 0 0 0 -15 -5 -35 -43 -34 -15 -18 -4 -6 0 -1 -5 -5 -7 -13 -7 -5 -2 -1 -2 -5
0 0 0 0 0 0 0 0 0 0 0 0 -1 0 0 0 0 0 0 0 0 0 0 0 0 -5 -16 -8 -4 -6 -11 -7 -5 -3 -4 -9 -11 -7 -7 -2 0 -5 0
0 0 0 0 0 0 -1 0 0 0 0 0 0 0 0 0 0 0 0 0 0 0 0 0 0 0 0 0 -5 -13 -10 -10 -11 -7 -5 -10 -9 -8 -12 -1 -4 -5 -6
0 0 -1 0 0 0 0 -6 0 0 0 0 0 0 0 0 0 0 0 0 0 0 0 0 0 0 0 0 0 0 -7 -9 -13 -17 -11 -4 -9 -9 -5 -7 -3 -8 -2
0 0 0 0 0 0 0 0 0 0 0 0 0 0 0 0 0 0 0 0 0 0 0 0 0 0 0 0 0 0 -7 -17 -13 -18 -11 -2 -19 -11 -8 -14 -17 0 -25
0 0 0 0 0 0 0 0 0 0 0 0 0 0 0 0 0 0 0 0 0 0 0 0 0 0 0 0 0 0 0 0 0 0 -5 -4 -12 0 -18 -13 -8 0 -2
0 0 0 0 0 0 0 -3 -1 0 0 0 0 0 0 0 0 0 0 0 0 0 0 0 -3 -11 -20 -9 -36 -32 -19 -12 -27 -38 -14 -28 -10 0 0 -23 -3 -7 0
0 0 -1 0 0 0 0 0 0 0 0 0 0 0 0 0 0 0 0 0 0 0 0 0 -11 -1 -8 -12 -19 -23 -22 -26 -34 -53 -43 -33 -25 -20 -19 -11 -3 0 0
0 0 0 0 0 0 0 0 0 0 0 0 0 0 0 0 0 0 0 0 0 0 0 0 0 -18 -7 -17 -14 -9 -12 -5 -2 -48 -56 -36 -23 -19 -21 -23 -27 -29 -16
0 0 0 0 0 0 0 0 0 0 0 0 0 0 0 0 0 0 0 0 0 0 0 0 0 0 -4 -4 -3 0 -2 -3 -4 -12 0 0 -25 -8 -23 -22 -29 -14 -11
0 0 0 0 0 0 0 0 0 0 0 0 0 0 0 0 0 0 0 0 0 0 0 -1 -4 -12 -2 -7 -1 0 0 0 -2 -5 -15 -17 -16 -21 -26 -17 -10 -12 -14
0 0 0 0 0 0 0 0 0 0 0 0 0 0 0 0 0 0 0 0 0 0 0 0 0 -8 0 0 0 -4 0 0 -6 -10 -33 -52 -5 0 -26 -16 -3 -3 -14
0 0 0 0 0 0 0 0 0 0 0 0 0 0 0 0 0 0 0 0 0 0 0 0 0 0 0 -1 -4 -1 0 0 -8 -11 -24 -32 0 0 -4 0 0 0 0
0 0 0 0 0 0 0 0 0 0 0 0 0 0 0 0 0 0 0 0 0 0 0 0 0 0 -1 0 -1 0 0 0 -4 -18 -9 -29 -28 -26 0 0 0 0 0
0 0 0 0 0 0 0 0 0 0 0 0 0 0 0 0 0 0 0 0 0 0 0 0 0 -1 0 -1 -1 0 0 -1 -4 -1 -4 -9 -4 -26 0 0 0 0 0
0 0 0 0 0 0 0 0 0 0 0 0 0 0 0 0 0 0 0 0 0 0 0 0 0 0 0 0 0 0 0 0 0 0 -4 0 0 -3 -9 -11 0 0 0
0 0 0 0 0 0 0 0 0 0 0 0 0 0 0 0 0 0 0 0 0 0 0 0 0 0 0 0 0 0 0 0 0 0 0 0 -1 -5 -1 0 -2 0 0
0 0 0 0 0 0 0 0 0 0 0 0 0 0 0 0 0 0 0 0 0 0 0 0 0 0 0 0 0 0 0 0 0 0 0 0 0 0 0 0 0 -1 -1
0 0 0 0 0 0 0 0 0 0 0 0 0 0 0 0 0 0 0 0 0 0 0 0 0 0 0 0 0 0 0 0 0 0 0 0 0 0 0 -3 0 0 0
Wind_Speed
59 65 65 62 61 60 47 39 36 30 32 29 26 25 23 nan 23 23 nan nan nan nan nan nan nan nan nan nan nan nan nan nan nan nan nan nan nan nan nan nan nan nan nan
64 66 68 68 67 61 57 52 47 40 35 33 29 27 24 26 24 24 22 nan nan nan nan nan nan nan nan nan nan nan nan nan nan nan nan nan nan nan nan nan nan nan nan
67 68 70 70 66 66 62 57 54 47 41 37 37 36 35 34 31 27 26 21 nan nan nan nan nan nan nan nan nan nan nan nan nan nan nan nan nan nan nan nan nan nan nan
74 74 72 73 70 67 63 61 58 51 46 42 39 35 33 32 29 29 28 28 23 23 23 22 nan nan nan nan nan nan nan nan nan nan nan nan nan nan nan nan nan nan nan
nan 78 76 74 72 69 66 62 60 59 52 49 44 43 40 41 nan 36 34 31 30 27 26 25 22 nan nan nan nan nan nan nan nan nan nan nan nan nan nan nan nan nan nan
nan nan 78 78 76 73 71 67 65 60 60 nan 54 50 nan nan nan nan nan nan 36 34 30 29 nan 27 nan nan nan nan nan nan nan nan nan nan nan nan nan nan nan nan nan
nan nan 80 nan 79 79 76 72 nan nan 67 64 61 58 nan nan nan nan nan nan 41 40 37 nan nan nan 31 nan nan nan nan nan nan nan nan nan nan nan nan nan nan nan nan
nan 80 79 nan 79 79 79 79 75 72 nan nan nan nan nan nan nan nan nan nan nan nan nan 37 37 nan nan 33 33 nan nan nan nan nan nan nan nan nan nan nan nan nan nan
nan 80 80 78 78 80 81 nan 78 76 74 69 nan nan nan nan nan nan nan nan nan nan nan nan nan nan nan nan nan nan nan nan nan nan nan nan nan nan nan nan nan nan nan
nan nan 80 80 78 79 nan nan nan nan nan nan nan nan nan nan nan nan nan nan nan nan nan nan nan nan nan nan nan nan nan nan nan nan nan nan nan nan nan nan nan nan nan
nan nan nan nan nan 81 nan nan nan nan nan nan nan nan nan nan nan nan nan nan nan nan nan nan nan nan nan nan nan nan nan nan nan nan nan nan nan nan nan nan nan nan nan
nan nan nan nan nan nan nan nan nan nan nan nan nan nan nan nan nan nan nan nan nan nan nan nan nan nan nan nan nan nan nan nan nan nan nan nan nan nan nan nan nan nan nan
nan nan nan nan nan nan nan nan nan nan nan nan nan nan nan nan nan nan nan nan nan nan nan nan nan nan nan nan nan nan nan nan nan nan nan nan nan nan nan nan nan nan nan
nan nan nan nan nan nan nan nan nan nan nan nan nan nan nan nan nan nan nan nan nan nan nan nan nan nan nan nan nan nan nan nan nan nan nan nan nan nan nan nan nan nan nan
nan nan nan nan nan nan nan nan nan nan nan nan nan nan nan nan nan nan nan nan nan nan nan nan nan nan nan nan nan nan nan nan nan nan nan nan nan nan nan nan nan nan nan
nan nan nan nan nan nan nan nan nan nan nan nan nan nan nan nan nan nan nan nan nan nan nan nan nan nan nan nan nan nan nan nan nan nan nan nan nan nan nan nan nan nan nan
nan nan nan nan nan nan nan nan nan nan nan nan nan nan nan nan nan nan nan nan nan nan nan nan nan nan nan nan nan nan nan nan nan nan nan nan nan nan nan nan nan nan nan
nan nan nan nan nan nan nan nan nan nan nan nan nan nan nan nan nan nan nan nan nan nan nan nan nan nan nan nan nan nan nan nan nan nan nan nan nan nan nan nan nan nan nan
nan nan nan nan nan nan nan nan nan nan nan nan nan nan nan nan nan nan nan nan nan nan nan nan nan nan nan nan nan nan nan nan nan nan nan nan nan nan nan nan nan nan nan
nan nan nan nan nan nan nan nan nan nan nan nan nan nan nan nan nan nan nan nan nan nan nan nan nan nan nan nan nan nan nan nan nan nan nan nan nan nan nan nan nan nan nan
nan nan nan nan nan nan nan nan nan nan nan nan nan nan nan nan nan nan nan nan nan nan nan nan nan nan nan nan nan nan nan nan nan nan nan nan nan nan nan nan nan nan nan
nan nan nan nan nan nan nan nan nan nan nan nan nan nan nan nan nan nan nan nan nan nan nan nan nan nan nan nan nan nan nan nan nan nan nan nan nan nan nan nan nan nan nan
nan nan nan nan nan nan nan nan nan nan nan nan nan nan nan nan nan nan nan nan nan nan nan nan nan nan nan nan nan nan nan nan nan nan nan nan nan nan nan nan nan nan nan
nan nan nan nan nan nan nan nan nan nan nan nan nan nan nan nan nan nan nan nan nan nan nan nan nan nan nan nan nan nan nan nan nan nan nan nan nan nan nan nan nan nan nan
nan nan nan nan nan nan nan nan nan nan nan nan nan nan nan nan nan nan nan nan nan nan nan nan nan nan nan nan nan nan nan nan nan nan nan nan nan nan nan nan nan nan nan
nan nan nan nan nan nan nan nan nan nan nan nan nan nan nan nan nan nan nan nan nan nan nan nan nan nan nan nan nan nan nan nan nan nan nan nan nan nan nan nan nan nan nan
Wind_Direction
218 217 218 221 224 221 229 230 231 236 230 228 227 224 227 nan 225 221 nan nan nan nan nan nan nan nan nan nan nan nan nan nan nan nan nan nan nan nan nan nan nan nan nan
220 220 219 220 222 225 221 222 226 230 228 227 224 217 225 218 222 221 218 nan nan nan nan nan nan nan nan nan nan nan nan nan nan nan nan nan nan nan nan nan nan nan nan
222 221 221 221 221 223 220 219 223 226 225 228 226 221 220 219 222 225 225 223 nan nan nan nan nan nan nan nan nan nan nan nan nan nan nan nan nan nan nan nan nan nan nan
220 220 221 221 222 221 221 220 219 222 221 225 228 233 225 226 223 230 230 227 229 229 230 231 nan nan nan nan nan nan nan nan nan nan nan nan nan nan nan nan nan nan nan
nan 219 220 221 221 220 221 222 224 216 220 222 225 227 225 223 nan 227 234 236 236 236 237 239 244 nan nan nan nan nan nan nan nan nan nan nan nan nan nan nan nan nan nan
nan nan 219 219 218 218 220 221 221 219 219 nan 224 226 nan nan nan nan nan nan 234 238 244 247 nan 251 nan nan nan nan nan nan nan nan nan nan nan nan nan nan nan nan nan
nan nan 218 nan 216 217 217 220 nan nan 216 219 222 225 nan nan nan nan nan nan 236 237 242 nan nan nan 255 nan nan nan nan nan nan nan nan nan nan nan nan nan nan nan nan
nan 220 219 nan 216 216 216 219 220 218 nan nan nan nan nan nan nan nan nan nan nan nan nan 247 249 nan nan 258 260 nan nan nan nan nan nan nan nan nan nan nan nan nan nan
nan 221 220 219 217 216 217 nan 219 219 219 220 nan nan nan nan nan nan nan nan nan nan nan nan nan nan nan nan nan nan nan nan nan nan nan nan nan nan nan nan nan nan nan
nan nan 220 220 219 217 nan nan nan nan nan nan nan nan nan nan nan nan nan nan nan nan nan nan nan nan nan nan nan nan nan nan nan nan nan nan nan nan nan nan nan nan nan
nan nan nan nan nan 218 nan nan nan nan nan nan nan nan nan nan nan nan nan nan nan nan nan nan nan nan nan nan nan nan nan nan nan nan nan nan nan nan nan nan nan nan nan
nan nan nan nan nan nan nan nan nan nan nan nan nan nan nan nan nan nan nan nan nan nan nan nan nan nan nan nan nan nan nan nan nan nan nan nan nan nan nan nan nan nan nan
nan nan nan nan nan nan nan nan nan nan nan nan nan nan nan nan nan nan nan nan nan nan nan nan nan nan nan nan nan nan nan nan nan nan nan nan nan nan nan nan nan nan nan
nan nan nan nan nan nan nan nan nan nan nan nan nan nan nan nan nan nan nan nan nan nan nan nan nan nan nan nan nan nan nan nan nan nan nan nan nan nan nan nan nan nan nan
nan nan nan nan nan nan nan nan nan nan nan nan nan nan nan nan nan nan nan nan nan nan nan nan nan nan nan nan nan nan nan nan nan nan nan nan nan nan nan nan nan nan nan
nan nan nan nan nan nan nan nan nan nan nan nan nan nan nan nan nan nan nan nan nan nan nan nan nan nan nan nan nan nan nan nan nan nan nan nan nan nan nan nan nan nan nan
nan nan nan nan nan nan nan nan nan nan nan nan nan nan nan nan nan nan nan nan nan nan nan nan nan nan nan nan nan nan nan nan nan nan nan nan nan nan nan nan nan nan nan
nan nan nan nan nan nan nan nan nan nan nan nan nan nan nan nan nan nan nan nan nan nan nan nan nan nan nan nan nan nan nan nan nan nan nan nan nan nan nan nan nan nan nan
nan nan nan nan nan nan nan nan nan nan nan nan nan nan nan nan nan nan nan nan nan nan nan nan nan nan nan nan nan nan nan nan nan nan nan nan nan nan nan nan nan nan nan
nan nan nan nan nan nan nan nan nan nan nan nan nan nan nan nan nan nan nan nan nan nan nan nan nan nan nan nan nan nan nan nan nan nan nan nan nan nan nan nan nan nan nan
nan nan nan nan nan nan nan nan nan nan nan nan nan nan nan nan nan nan nan nan nan nan nan nan nan nan nan nan nan nan nan nan nan nan nan nan nan nan nan nan nan nan nan
nan nan nan nan nan nan nan nan nan nan nan nan nan nan nan nan nan nan nan nan nan nan nan nan nan nan nan nan nan nan nan nan nan nan nan nan nan nan nan nan nan nan nan
nan nan nan nan nan nan nan nan nan nan nan nan nan nan nan nan nan nan nan nan nan nan nan nan nan nan nan nan nan nan nan nan nan nan nan nan nan nan nan nan nan nan nan
nan nan nan nan nan nan nan nan nan nan nan nan nan nan nan nan nan nan nan nan nan nan nan nan nan nan nan nan nan nan nan nan nan nan nan nan nan nan nan nan nan nan nan
nan nan nan nan nan nan nan nan nan nan nan nan nan nan nan nan nan nan nan nan nan nan nan nan nan nan nan nan nan nan nan nan nan nan nan nan nan nan nan nan nan nan nan
nan nan nan nan nan nan nan nan nan nan nan nan nan nan nan nan nan nan nan nan nan nan nan nan nan nan nan nan nan nan nan nan nan nan nan nan nan nan nan nan nan nan nan